Aérodrome :
LOGIN :

S'inscrire | Disclaimer

   EN    FR    IT 

 










Légende :    VFR   VFR Marginal   IFR   IFR Intensif   IFR Très Intensif
Visi : 
Plafond : 
>= 8 km
>= 3000ft
5 à 8 km
1000 à 3000 ft
1500m à 5 km
500 à 1000 ft
800 à 1500m
200 à 500 ft
< 800m
< 200 ft
Symboles :   Orages  Brouillard  Fortes neiges  Fortes précipitations  Vent > 20 kt
SIGMETs :   Divers  Orages  Givrage  Turbulence  Onde Orograph.  Cendres Volcan.







- Altitude de l'aérodrome : 1187 ft


LIBV - Gioia del Colle Bari

DERNIER METAR :
  • 261955Z 18008KT CAVOK 15/08 Q1012 RMK SKC VIS MIN 9999 WIND THR32 18006KT WIND THR14 18005KT BLU

METARs EXPIRÉS :
  • 261855Z 16004KT CAVOK 16/09 Q1012 RMK SKC VIS MIN 9999 WIND THR32 16007KT WIND THR14 18004KT BLU
  • 261755Z 17004KT CAVOK 19/07 Q1012 RMK FEW FEW200 VIS MIN 9999 WIND THR32 18008KT WIND THR14 17005KT BLU

TAF TAF LIBV
Valide du 26 à 21h jusqu'au 27 à 06h UTC


262000Z 2621/2706 18005KT CAVOK
BECMG 2622/2624 VRB03KT
Pas de NOTAMs connus pour ce terrain.



MET'MAP, la Météo Aéronautique d'un coup d'oeil ! - Copyright ORBIFLY Décembre 2007 - Disclaimer

ORBIFLY MET'MAP TEAM :

Programmation & Développement : Alexandra Zaïnal
Conception & Développement : Baudouin d'Aumeries
Co-Programmation & Développement : Marc-Olivier Méhu
Soutien technique & logistique : Manuel Goepfert

Contact : metmap@orbifly.com




SOURCES & CREDITS :

   NOAA